Location: Chillicothe
(39.7950°N, 93.5520°W)
Time: 12:24:29
(UTC-06:00)

Vanguard 3 - Pass Details

Date: 30 October 2019
Orbit: 508 x 3263 km, 33.3° (Epoch: 17 November)

Event Time Altitude Azimuth Distance (km) Brightness Sun altitude
Rises 00:24:15 0° 263° (W) 3,469 - -62.9°
Reaches altitude 10° 00:27:24 10° 254° (WSW) 2,211 - -63.0°
Maximum altitude 00:31:40 33° 191° (S) 981 - -63.3°
Drops below altitude 10° 00:35:03 10° 125° (SE) 1,731 - -63.4°
Sets 00:37:13 0° 115° (ESE) 2,593 - -63.5°
